Location: Helstorf
(52.5868°N, 9.5862°E)
Time: 08:26:35
(UTC+00:00)

Cosmos 2034 Rocket - Pass Details

Date: 15 May 2026
Orbit: 956 x 1001 km, 82.9° (Epoch: 5 June)

Event Time Altitude Azimuth Distance (km) Brightness Sun altitude
Exits shadow 21:58:34 14° 202° (SSW) 2,487 5.7 -16.3°
Maximum altitude 22:04:08 67° 284° (WNW) 1,079 4.3 -16.6°
Drops below altitude 10° 22:10:27 10° 7° (N) 2,761 7.4 -16.9°
Sets 22:13:00 0° 10° (N) 3,707 8.2 -17.0°
